Left ArrowRight Arrow

44.5394, -95.11694

Hourly Observations for June 20, 2024

Temp ( °F °C ) Dew Point ( °F °C ) Humidity (%) Winds ( mph kmh ) Pressure ( in mb ) Visibility ( mi km ) Precip ( " mm )
12:53 am 00:53 Partly Cloudy 62 16.7 56 13.3 80 80 Calm 30.32 1027 10 16 0.00 0.00
1:53 am 01:53 Cloudy 63 17.2 56 13.3 78 78 Calm 30.34 1028 10 16 0.00 0.00
2:53 am 02:53 Cloudy 63 17.2 56 13.3 78 78 NNE 3 6 30.33 1027 10 16 0.00 0.00
3:53 am 03:53 Mostly Cloudy 61 16.1 57 13.9 87 87 ENE 6 9 30.30 1026 10 16 0.01 0.25
4:53 am 04:53 Cloudy 60 15.6 56 13.3 86 86 E 8 13 30.29 1026 10 16 0.00 0.00
5:53 am 05:53 Cloudy with Light Rain 60 15.6 56 13.3 86 86 NW 7 11 30.36 1028 10 16 0.01 0.13
6:53 am 06:53 Cloudy with Light Rain 60 15.6 57 13.9 90 90 NE 6 9 30.34 1027 9 14 0.01 0.13
7:53 am 07:53 Mostly Sunny 61 16.1 57 13.9 87 87 Calm 30.33 1027 10 16 0.01 0.13
8:53 am 08:53 Cloudy 62 16.7 57 13.9 84 84 NE 6 9 30.32 1027 10 16 0.00 0.00
9:53 am 09:53 Cloudy with Light Rain 63 17.2 58 14.4 84 84 Calm 30.35 1028 8 13 0.01 0.13
10:03 am 10:03 Cloudy with Rain 62 16.7 58 14.4 86 86 NE 6 9 30.32 1027 2 3 0.02 0.51
10:14 am 10:14 Cloudy with Light Rain 61 16.1 59 15 93 93 N 5 7 30.31 1026 3 5 0.03 0.76
10:53 am 10:53 Cloudy 63 17.2 59 15 87 87 ENE 7 11 30.32 1027 10 16 0.03 0.76
11:53 am 11:53 Cloudy with Light Rain 63 17.2 57 13.9 81 81 Calm 30.36 1028 4 6 0.01 0.13
12:53 pm 12:53 Mostly Cloudy with Light Rain 63 17.2 60 15.6 90 90 NNE 3 6 30.34 1027 10 16 0.02 0.51
1:53 pm 13:53 Cloudy 64 17.8 60 15.6 87 87 Calm 30.33 1027 10 16 0.01 0.13
2:44 pm 14:44 Cloudy 65 18.3 60 15.6 84 84 NNW 5 7 30.32 1027 10 16 0.00 0.00
3:01 pm 15:01 Cloudy 64 17.8 60 15.6 87 87 E 6 9 30.29 1026 10 16 0.00 0.00
3:53 pm 15:53 Mostly Sunny 65 18.3 59 15 81 81 ESE 8 13 30.25 1024 10 16 0.01 0.13
4:28 pm 16:28 Mostly Cloudy 65 18.3 60 15.6 84 84 ENE 5 7 30.24 1024 10 16 0.00 0.00
4:53 pm 16:53 Cloudy 65 18.3 59 15 81 81 Calm 30.28 1025 10 16 0.00 0.00
5:53 pm 17:53 Cloudy with Light Rain 64 17.8 58 14.4 80 80 S 5 7 30.30 1026 9 14 0.01 0.13
6:32 pm 18:32 Cloudy with Light Rain 62 16.7 59 15 90 90 Calm 30.27 1025 4 6 0.01 0.25
6:53 pm 18:53 Cloudy with Light Rain 62 16.7 60 15.6 93 93 Calm 30.30 1026 3 5 0.01 0.25
7:53 pm 19:53 Cloudy with Light Rain 62 16.7 60 15.6 93 93 E 3 6 30.26 1025 6 10 0.01 0.25
8:35 pm 20:35 Mostly Cloudy with Light Rain 61 16.1 59 15 93 93 ESE 10 17 30.23 1024 10 16 0.01 0.13
8:53 pm 20:53 Mostly Cloudy with Light Rain 60 15.6 58 14.4 93 93 SE 8 13 30.24 1024 10 16 0.01 0.13
9:53 pm 21:53 Partly Cloudy 60 15.6 58 14.4 93 93 ESE 5 7 30.22 1024 10 16 0.01 0.13
10:53 pm 22:53 Partly Cloudy with Light Rain 60 15.6 59 15 96 96 ESE 9 15 30.20 1023 6 10 0.01 0.13
11:22 pm 23:22 Mostly Cloudy with Light Rain 60 15.6 59 15 96 96 NNW 6 9 30.22 1023 5 8 0.01 0.25
11:53 pm 23:53 Cloudy with Mist and Fog 61 16.1 59 15 93 93 NNE 3 6 30.23 1024 5 8 0.01 0.25

Powered by Vaisala Xweather